Other Public Products
Issued by NWS Charleston, SC

Current Version | Previous Version | Graphics & Text | Print | Product List | Glossary Off
Versions: 1 2 3 4 5 6 7 8 9 10 11 12 13 14 15 16 17 18 19 20 21 22 23 24 25 26 27 28 29 30 31 32 33 34 35 36 37 38 39 40 41 42 43 44 45 46 47 48 49 50
382 FPUS82 KCHS 240527 OPUCHS TEST...KCHS/KSAV Gateway Observations...TEST National Weather Service Charleston SC 100 AM EDT TUE APR 24 2018 NOTE: "fair" indicates few or no clouds below 12,000 feet with no significant weather and/or obstructions to visibility. SCZ050-WAZ558-NCZ071-TXZ119-213-PAZ071-DCZ001-FLZ074-172-MI076- NYZ176-178-MAZ016-IL014-TNZ027-NJZ106-GAZ044-MD014-240600- ...Gateway Observations for Charleston International... CITY SKY/WX TMP DP RH WIND PRES REMARKS Chas Airport MOCLDY 68 66 93 SE7 29.94F Seattle CLEAR 61 35 37 NE12 30.22R Charlotte CLOUDY 58 56 93 E15G25 30.03F Dallas DFW CLEAR 65 51 60 NW7 30.03R Dallas Love PTCLDY 63 54 72 CALM 30.04R Philladelphia FAIR 48 31 51 E3 30.41F Wash National CLOUDY 56 35 45 E9 30.35F Baltimore CLOUDY 51 33 50 E7 30.35F Miami FAIR 74 74 100 VRB3 30.00F Detroit CLOUDY 55 43 63 S6 30.16F Newark MOCLDY 50 40 68 CALM 30.42F Laguardia MOCLDY 50 42 74 S5 30.42F J F K MOCLDY 45 43 93 CALM 30.44S Boston Logan FAIR 47 23 38 SW13 30.43F Ft. Lauderdale FAIR 76 75 97 S5 29.99F Chicago O`Hare CLOUDY 49 31 49 N5 30.09F Chicago Midway CLOUDY 52 35 52 CALM 30.10S Houston Bush FAIR 63 55 75 NE5 30.03S Houston Hobby FAIR 62 57 83 CALM 30.03S Nashville CLOUDY 57 55 93 N5 29.90F Atlanta CLOUDY 61 61 100 NW7 29.86S $$ GAZ044-118-TXZ119-213-NCZ071-DCZ001-MDZ014-506-PAZ021-071-NJZ106- NYZ176-178-MAZ106-OHZ011-021-055-MIZ076-KYZ091-ILZ014-INZ047- MNZ060-ONZ431-240600- ...Gateway Observations for Savannah International... CITY SKY/WX TMP DP RH WIND PRES REMARKS Savannah Arpt FAIR 68 66 93 S9 29.91R Atlanta CLOUDY 61 61 100 NW7 29.86S Charlotte CLOUDY 58 56 93 E15G25 30.03F Dallas DFW CLEAR 65 51 60 NW7 30.03R Houston Bush FAIR 63 55 75 NE5 30.03S Wash National CLOUDY 56 35 45 E9 30.35F Wash Dulles CLOUDY 55 35 47 SE8 30.33F Baltimore CLOUDY 51 33 50 E7 30.35F Philadelphia FAIR 48 31 51 E3 30.41F Newark MOCLDY 50 40 68 CALM 30.42F Laguardia MOCLDY 50 42 74 S5 30.42F J F K MOCLDY 45 43 93 CALM 30.44S Boston FAIR 47 23 38 SW13 30.43F Pittsburg CLOUDY 59 44 57 SE13G22 30.19F Akron CLOUDY 57 39 51 E6 30.17F Cleveland CLOUDY 57 46 66 CALM 30.19F Cincinnati CLOUDY 53 48 83 E12 30.01F Columbus MOCLDY 51 48 89 E8 30.10F Detroit CLOUDY 55 43 63 S6 30.16F Chicago O`Hare CLOUDY 49 31 49 N5 30.09F Minneapolis FAIR 55 40 56 NW5 30.13S Indianapolis CLOUDY 53 50 89 E9 30.02F Toronto Canada CLOUDY 52 19 28 SE5 30.18F $$

USA.gov is the U.S. government's official web portal to all federal, state and local government web resources and services.